Flag for U.S.A. Weather past 2 weeks in Portland, Oregon, U.S.A.

Now
50 °F

Mostly cloudy.


Feels Like: 48 °F
Forecast: 49 / 69 °F
Wind: 5 mph from Northwest

Location: Portland International Airport

Current Time: Sep 4, 2015 at 8:10:12 AM

Latest Report: Sep 4, 2015 at 6:53 AM


Visibility: 10 mi

Pressure: 29.98 "Hg

Humidity: 96%

Dew point: 49 °F

Location of PortlandLocation

Historic Weather in Portland — Graph

°F

Portland temperature yesterday

Maximum temperature yesterday: 67 °F (at 12:53 PM)
Minimum temperature yesterday: 50 °F (at 6:53 AM)
Average temperature yesterday: 59 °F

Past Weeks' High & Low Weather Summary

 TemperatureHumidityPressure
High89 °F (Aug 26, 5:53 PM)97% (Sep 2, 12:53 AM)30.09 "Hg (Sep 2, 12:53 AM)
Low50 °F (Sep 3, 6:53 AM)16% (Aug 25, 4:53 PM)29.54 "Hg (Aug 29, 2:53 AM)
Average68 °F60%29.95 "Hg
* Reported Aug 20 6:53 AM — Sep 4 6:53 AM, Portland, Weather by CustomWeather, © 2015

Note: Actual official high and low records may vary slightly from our data, if they occured in-between our weather recording intervals... More about our weather records

Advertising

Portland weather history for previous 24 hours

 ConditionsComfort  
Time TempWeatherWind HumidityBarometerVisibility
6:53 AM
Fri, Sep 4
50 °FMostly cloudy.5 mph96%29.98 "Hg10 mi
5:53 AM50 °FLow clouds.No wind96%29.98 "Hg10 mi
4:53 AM51 °FLow clouds.No wind96%29.98 "Hg10 mi
3:53 AM52 °FLow clouds.3 mph93%29.97 "Hg10 mi
2:53 AM52 °FLow clouds.5 mph97%29.98 "Hg10 mi
1:53 AM53 °FPassing clouds.5 mph96%29.98 "Hg10 mi
12:53 AM54 °FPassing clouds.5 mph93%29.98 "Hg10 mi
11:53 PM
Thu, Sep 3
54 °FPassing clouds.No wind90%29.98 "Hg10 mi
10:53 PM55 °FPassing clouds.3 mph87%29.98 "Hg10 mi
9:53 PM57 °FPassing clouds.3 mph81%29.99 "Hg10 mi
8:53 PM59 °FPartly cloudy.3 mph69%30.00 "Hg10 mi
7:53 PM59 °FBroken clouds.5 mph75%29.99 "Hg10 mi
6:53 PM61 °FBroken clouds.5 mph67%29.99 "Hg10 mi
5:53 PM63 °FPartly sunny.9 mph63%30.00 "Hg10 mi
4:53 PM63 °FLight rain. Partly sunny.13 mph60%30.00 "Hg10 mi
3:53 PM65 °FBroken clouds.3 mph52%30.00 "Hg10 mi
2:53 PM63 °FBroken clouds.9 mph56%30.01 "Hg10 mi
1:53 PM65 °FLight rain. Partly sunny.No wind49%30.00 "Hg10 mi
12:53 PM67 °FPassing clouds.7 mph47%30.01 "Hg10 mi
11:53 AM64 °FPassing clouds.5 mph58%30.03 "Hg10 mi
10:53 AM62 °FScattered clouds.6 mph65%30.04 "Hg10 mi
9:53 AM60 °FPassing clouds.5 mph72%30.05 "Hg10 mi
8:53 AM57 °FPassing clouds.No wind81%30.05 "Hg10 mi
Weather by CustomWeather, © 2015

See weather overviewHow to use our weather pages